Station Historical Data
Daily Summary for October 5, 2017 Units:  English    Metric   Both
« Previous Day
Next Day »
Daily Weekly Monthly Yearly Custom
  High: Low: Average:
Temperature: 69.3 °F 54.1 °F 63 °F
Dew Point: 58.9 °F 48.4 °F 53 °F
Humidity: 87% 54% 71%
Wind Speed: 20.0mph 0.0mph 3.1mph
Wind Gust: 21.0mph - -
Wind- - WSW
Pressure: 30.17 in 30.05 in -
Precipitation: 0.00 in    
Historical Graphs
 
 
Tabular Data for October 5, 2017
Time Temperature Dew Point Pressure Wind Wind Speed Wind Gust Humidity Rainfall Rate (Hourly)
00:04 62.8 °F 58.9 °F 30.16 in Calm   3.0 mph 87% 0.00 in
00:09 62.7 °F 58.8 °F 30.15 in Calm   3.0 mph 87% 0.00 in
00:14 62.6 °F 58.7 °F 30.16 in Calm   3.0 mph 87% 0.00 in
00:19 62.6 °F 58.4 °F 30.16 in Calm   4.0 mph 86% 0.00 in
00:24 62.5 °F 58.3 °F 30.16 in NNW 2.0 mph 3.0 mph 86% 0.00 in
00:29 62.3 °F 58.1 °F 30.16 in Calm   3.0 mph 86% 0.00 in
00:34 62.2 °F 58.0 °F 30.16 in Calm   2.0 mph 86% 0.00 in
00:39 62.1 °F 57.5 °F 30.16 in Calm     85% 0.00 in
00:44 62.1 °F 57.5 °F 30.16 in Calm     85% 0.00 in
00:54 62.2 °F 57.6 °F 30.16 in Calm     85% 0.00 in
00:59 62.1 °F 57.2 °F 30.16 in Calm     84% 0.00 in
01:04 62.2 °F 57.3 °F 30.16 in Calm     84% 0.00 in
01:09 62.1 °F 56.9 °F 30.16 in Calm     83% 0.00 in
01:14 61.9 °F 55.7 °F 30.17 in Calm     80% 0.00 in
01:24 62.2 °F 56.3 °F 30.16 in Calm     81% 0.00 in
01:29 62.1 °F 55.9 °F 30.16 in Calm   1.0 mph 80% 0.00 in
01:39 61.9 °F 55.3 °F 30.17 in Calm     79% 0.00 in
01:44 61.9 °F 55.3 °F 30.16 in Calm     79% 0.00 in
01:49 61.8 °F 54.9 °F 30.16 in Calm     78% 0.00 in
01:54 61.8 °F 54.9 °F 30.17 in Calm     78% 0.00 in
01:59 61.9 °F 54.6 °F 30.17 in Calm     77% 0.00 in
02:04 61.8 °F 54.5 °F 30.17 in Calm     77% 0.00 in
02:09 61.6 °F 54.3 °F 30.16 in Calm     77% 0.00 in
02:14 61.5 °F 54.2 °F 30.16 in Calm     77% 0.00 in
02:19 61.3 °F 54.0 °F 30.16 in Calm     77% 0.00 in
02:24 61.3 °F 54.0 °F 30.16 in Calm     77% 0.00 in
02:29 61.3 °F 54.0 °F 30.16 in Calm     77% 0.00 in
02:34 61.1 °F 53.8 °F 30.15 in Calm     77% 0.00 in
02:39 61.0 °F 53.7 °F 30.15 in Calm     77% 0.00 in
02:44 61.0 °F 53.7 °F 30.16 in Calm     77% 0.00 in
02:49 61.0 °F 53.4 °F 30.15 in Calm     76% 0.00 in
02:54 61.0 °F 53.4 °F 30.15 in Calm     76% 0.00 in
02:59 60.8 °F 53.2 °F 30.15 in Calm     76% 0.00 in
03:04 60.7 °F 53.1 °F 30.14 in Calm     76% 0.00 in
03:09 60.7 °F 53.4 °F 30.14 in Calm     77% 0.00 in
03:14 60.6 °F 53.7 °F 30.14 in Calm     78% 0.00 in
03:19 60.6 °F 53.7 °F 30.15 in Calm     78% 0.00 in
03:24 60.6 °F 53.3 °F 30.15 in Calm     77% 0.00 in
03:29 60.6 °F 53.7 °F 30.14 in Calm     78% 0.00 in
03:34 60.6 °F 53.3 °F 30.15 in Calm     77% 0.00 in
03:39 60.5 °F 53.3 °F 30.14 in Calm     77% 0.00 in
03:44 60.4 °F 53.2 °F 30.14 in Calm     77% 0.00 in
03:49 60.3 °F 53.1 °F 30.14 in Calm     77% 0.00 in
03:59 60.4 °F 52.8 °F 30.14 in Calm     76% 0.00 in
04:04 60.4 °F 52.8 °F 30.14 in Calm     76% 0.00 in
04:09 60.3 °F 53.1 °F 30.14 in Calm     77% 0.00 in
04:19 60.2 °F 53.3 °F 30.15 in Calm     78% 0.00 in
04:24 60.1 °F 53.2 °F 30.15 in Calm     78% 0.00 in
04:34 59.8 °F 53.3 °F 30.15 in Calm     79% 0.00 in
04:39 59.8 °F 53.3 °F 30.15 in Calm     79% 0.00 in
04:44 59.8 °F 53.6 °F 30.15 in Calm     80% 0.00 in
04:49 59.7 °F 53.5 °F 30.14 in Calm     80% 0.00 in
04:54 59.5 °F 53.3 °F 30.14 in Calm     80% 0.00 in
04:59 59.3 °F 52.8 °F 30.14 in Calm     79% 0.00 in
05:04 59.1 °F 52.6 °F 30.14 in Calm     79% 0.00 in
05:09 58.9 °F 52.4 °F 30.14 in Calm     79% 0.00 in
05:14 58.6 °F 52.4 °F 30.14 in Calm     80% 0.00 in
05:19 58.0 °F 52.2 °F 30.14 in Calm     81% 0.00 in
05:24 57.5 °F 52.0 °F 30.14 in Calm     82% 0.00 in
05:29 57.0 °F 51.9 °F 30.14 in Calm     83% 0.00 in
05:34 56.7 °F 51.6 °F 30.14 in Calm     83% 0.00 in
05:44 56.2 °F 51.4 °F 30.14 in Calm     84% 0.00 in
05:49 56.2 °F 51.7 °F 30.14 in Calm     85% 0.00 in
05:54 56.3 °F 51.8 °F 30.13 in Calm     85% 0.00 in
05:59 56.4 °F 51.9 °F 30.13 in Calm     85% 0.00 in
06:04 56.4 °F 51.9 °F 30.13 in Calm     85% 0.00 in
06:09 56.2 °F 51.7 °F 30.13 in Calm     85% 0.00 in
06:14 56.2 °F 51.7 °F 30.13 in Calm     85% 0.00 in
06:19 56.0 °F 51.2 °F 30.13 in Calm     84% 0.00 in
06:24 55.9 °F 51.1 °F 30.13 in Calm     84% 0.00 in
06:29 55.7 °F 50.9 °F 30.13 in Calm     84% 0.00 in
06:34 55.4 °F 50.6 °F 30.13 in Calm     84% 0.00 in
06:39 55.2 °F 50.8 °F 30.14 in Calm     85% 0.00 in
06:44 54.8 °F 50.4 °F 30.14 in Calm     85% 0.00 in
06:49 54.6 °F 50.2 °F 30.14 in Calm     85% 0.00 in
06:54 54.4 °F 50.3 °F 30.14 in Calm     86% 0.00 in
06:59 54.6 °F 50.5 °F 30.14 in Calm     86% 0.00 in
07:04 54.5 °F 50.4 °F 30.14 in Calm     86% 0.00 in
07:09 54.5 °F 50.4 °F 30.14 in Calm     86% 0.00 in
07:14 54.7 °F 50.9 °F 30.14 in Calm     87% 0.00 in
07:19 54.9 °F 50.8 °F 30.14 in Calm     86% 0.00 in
07:24 55.0 °F 50.9 °F 30.14 in Calm     86% 0.00 in
07:29 54.9 °F 50.8 °F 30.14 in Calm     86% 0.00 in
07:34 54.7 °F 50.6 °F 30.15 in Calm     86% 0.00 in
07:39 54.3 °F 50.2 °F 30.15 in Calm     86% 0.00 in
07:44 54.1 °F 50.0 °F 30.15 in Calm     86% 0.00 in
07:49 54.2 °F 50.4 °F 30.15 in Calm     87% 0.00 in
07:54 54.5 °F 50.7 °F 30.15 in Calm     87% 0.00 in
07:59 54.7 °F 50.9 °F 30.15 in Calm     87% 0.00 in
08:04 55.0 °F 50.9 °F 30.16 in Calm     86% 0.00 in
08:09 55.3 °F 50.9 °F 30.16 in Calm     85% 0.00 in
08:14 55.8 °F 51.0 °F 30.16 in Calm   1.0 mph 84% 0.00 in
08:19 56.1 °F 51.0 °F 30.16 in Calm   4.0 mph 83% 0.00 in
08:24 56.4 °F 51.0 °F 30.16 in West 1.0 mph 4.0 mph 82% 0.00 in
08:34 57.3 °F 51.2 °F 30.16 in West 1.0 mph 3.0 mph 80% 0.00 in
08:39 57.9 °F 51.1 °F 30.16 in NW 3.0 mph 5.0 mph 78% 0.00 in
08:44 58.5 °F 51.0 °F 30.16 in WNW 1.0 mph 4.0 mph 76% 0.00 in
08:49 59.0 °F 51.1 °F 30.16 in WNW 1.0 mph 3.0 mph 75% 0.00 in
08:54 59.6 °F 50.9 °F 30.16 in WNW 2.0 mph 3.0 mph 73% 0.00 in
08:59 60.3 °F 51.2 °F 30.16 in WNW 2.0 mph 5.0 mph 72% 0.00 in
09:04 60.6 °F 50.8 °F 30.16 in WNW 1.0 mph 5.0 mph 70% 0.00 in
09:09 60.8 °F 50.6 °F 30.16 in WNW 1.0 mph 4.0 mph 69% 0.00 in
09:14 61.3 °F 50.6 °F 30.16 in West 2.0 mph 6.0 mph 68% 0.00 in
09:19 61.4 °F 50.3 °F 30.16 in WNW 4.0 mph 5.0 mph 67% 0.00 in
09:24 61.5 °F 50.0 °F 30.16 in West 3.0 mph 5.0 mph 66% 0.00 in
09:29 62.3 °F 50.4 °F 30.16 in West 1.0 mph 3.0 mph 65% 0.00 in
09:44 63.4 °F 49.3 °F 30.16 in West 2.0 mph 5.0 mph 60% 0.00 in
09:49 63.9 °F 49.3 °F 30.17 in WSW 2.0 mph 5.0 mph 59% 0.00 in
09:54 64.2 °F 49.1 °F 30.17 in SSW 3.0 mph 4.0 mph 58% 0.00 in
09:59 64.4 °F 48.8 °F 30.17 in WNW 3.0 mph 4.0 mph 57% 0.00 in
10:04 64.5 °F 48.4 °F 30.16 in WSW 3.0 mph 5.0 mph 56% 0.00 in
10:09 65.0 °F 49.9 °F 30.16 in West 3.0 mph 7.0 mph 58% 0.00 in
10:14 65.1 °F 49.5 °F 30.16 in West 4.0 mph 9.0 mph 57% 0.00 in
10:19 65.2 °F 50.0 °F 30.16 in NW 6.0 mph 8.0 mph 58% 0.00 in
10:24 65.6 °F 50.0 °F 30.16 in West 5.0 mph 8.0 mph 57% 0.00 in
10:29 65.5 °F 50.3 °F 30.16 in WSW 4.0 mph 8.0 mph 58% 0.00 in
10:34 66.0 °F 51.3 °F 30.16 in WNW 3.0 mph 7.0 mph 59% 0.00 in
10:39 66.0 °F 50.3 °F 30.15 in WNW 4.0 mph 7.0 mph 57% 0.00 in
10:44 66.9 °F 50.7 °F 30.15 in WNW 3.0 mph 8.0 mph 56% 0.00 in
10:49 66.9 °F 51.2 °F 30.15 in WNW 4.0 mph 9.0 mph 57% 0.00 in
10:54 66.8 °F 50.6 °F 30.15 in WNW 5.0 mph 10.0 mph 56% 0.00 in
10:59 66.8 °F 50.6 °F 30.15 in West 5.0 mph 10.0 mph 56% 0.00 in
11:04 67.0 °F 50.3 °F 30.15 in West 4.0 mph 12.0 mph 55% 0.00 in
11:09 67.2 °F 51.4 °F 30.14 in West 4.0 mph 12.0 mph 57% 0.00 in
11:14 67.4 °F 51.2 °F 30.14 in West 3.0 mph 9.0 mph 56% 0.00 in
11:19 66.8 °F 52.0 °F 30.14 in WSW 1.0 mph 11.0 mph 59% 0.00 in
11:24 67.7 °F 52.4 °F 30.14 in SW 5.0 mph 11.0 mph 58% 0.00 in
11:29 67.7 °F 51.4 °F 30.13 in WSW 8.0 mph 8.0 mph 56% 0.00 in
11:34 68.0 °F 52.2 °F 30.13 in SSW 3.0 mph 9.0 mph 57% 0.00 in
11:44 68.1 °F 51.3 °F 30.13 in WSW 4.0 mph 8.0 mph 55% 0.00 in
11:49 67.9 °F 51.6 °F 30.13 in WSW 4.0 mph 8.0 mph 56% 0.00 in
11:59 67.9 °F 52.6 °F 30.13 in SW 5.0 mph 11.0 mph 58% 0.00 in
12:04 67.7 °F 51.9 °F 30.12 in West 4.0 mph 10.0 mph 57% 0.00 in
12:09 68.2 °F 53.8 °F 30.12 in SW 6.0 mph 9.0 mph 60% 0.00 in
12:14 68.9 °F 54.0 °F 30.12 in SW 3.0 mph 9.0 mph 59% 0.00 in
12:19 68.7 °F 51.9 °F 30.11 in SW 4.0 mph 10.0 mph 55% 0.00 in
12:24 68.5 °F 51.2 °F 30.12 in SW 5.0 mph 15.0 mph 54% 0.00 in
12:29 68.3 °F 51.0 °F 30.11 in SSW 7.0 mph 11.0 mph 54% 0.00 in
12:39 68.3 °F 51.5 °F 30.11 in SSW 4.0 mph 15.0 mph 55% 0.00 in
12:44 68.1 °F 50.8 °F 30.11 in SW 7.0 mph 15.0 mph 54% 0.00 in
12:49 68.0 °F 50.7 °F 30.11 in WSW 8.0 mph 15.0 mph 54% 0.00 in
12:54 68.1 °F 52.3 °F 30.12 in SW 8.0 mph 14.0 mph 57% 0.00 in
12:59 68.2 °F 52.4 °F 30.11 in SW 8.0 mph 14.0 mph 57% 0.00 in
13:14 68.7 °F 54.3 °F 30.11 in WSW 6.0 mph 12.0 mph 60% 0.00 in
13:19 68.6 °F 54.2 °F 30.11 in WSW 6.0 mph 13.0 mph 60% 0.00 in
13:24 68.4 °F 54.0 °F 30.10 in SW 6.0 mph 13.0 mph 60% 0.00 in
13:34 68.4 °F 54.9 °F 30.10 in WSW 6.0 mph 15.0 mph 62% 0.00 in
13:39 68.1 °F 54.1 °F 30.09 in West 6.0 mph 12.0 mph 61% 0.00 in
13:44 68.6 °F 54.6 °F 30.09 in WSW 6.0 mph 12.0 mph 61% 0.00 in
13:54 68.4 °F 54.9 °F 30.09 in WSW 8.0 mph 15.0 mph 62% 0.00 in
13:59 68.1 °F 55.0 °F 30.09 in SW 7.0 mph 18.0 mph 63% 0.00 in
14:04 68.1 °F 54.6 °F 30.10 in WSW 5.0 mph 15.0 mph 62% 0.00 in
14:09 68.8 °F 55.2 °F 30.10 in West 5.0 mph 13.0 mph 62% 0.00 in
14:14 68.6 °F 55.1 °F 30.10 in WSW 6.0 mph 15.0 mph 62% 0.00 in
14:19 68.0 °F 54.9 °F 30.09 in WSW 7.0 mph 15.0 mph 63% 0.00 in
14:24 67.9 °F 54.8 °F 30.09 in WSW 7.0 mph 14.0 mph 63% 0.00 in
14:29 68.3 °F 55.6 °F 30.09 in WSW 7.0 mph 16.0 mph 64% 0.00 in
14:34 68.6 °F 55.9 °F 30.08 in WSW 7.0 mph 16.0 mph 64% 0.00 in
14:39 68.8 °F 55.2 °F 30.08 in West 8.0 mph 13.0 mph 62% 0.00 in
14:44 68.6 °F 55.1 °F 30.09 in WSW 2.0 mph 12.0 mph 62% 0.00 in
14:54 69.0 °F 55.4 °F 30.09 in SW 9.0 mph 12.0 mph 62% 0.00 in
14:59 68.4 °F 54.4 °F 30.09 in SW 4.0 mph 16.0 mph 61% 0.00 in
15:04 68.5 °F 55.0 °F 30.08 in SW 20.0 mph 20.0 mph 62% 0.00 in
15:09 68.0 °F 53.1 °F 30.09 in WNW 8.0 mph 20.0 mph 59% 0.00 in
15:19 68.1 °F 54.6 °F 30.08 in WSW 9.0 mph 19.0 mph 62% 0.00 in
15:24 68.1 °F 53.2 °F 30.09 in WSW 9.0 mph 19.0 mph 59% 0.00 in
15:29 68.3 °F 52.5 °F 30.08 in WSW 9.0 mph 19.0 mph 57% 0.00 in
15:34 68.6 °F 53.2 °F 30.08 in WSW 8.0 mph 15.0 mph 58% 0.00 in
15:39 68.6 °F 52.8 °F 30.07 in SW 10.0 mph 17.0 mph 57% 0.00 in
15:44 68.5 °F 53.1 °F 30.07 in WSW 7.0 mph 21.0 mph 58% 0.00 in
15:49 68.4 °F 54.0 °F 30.07 in WSW 9.0 mph 21.0 mph 60% 0.00 in
15:54 68.7 °F 53.3 °F 30.07 in WSW 8.0 mph 15.0 mph 58% 0.00 in
15:59 68.6 °F 52.3 °F 30.07 in WSW 8.0 mph 19.0 mph 56% 0.00 in
16:04 68.2 °F 52.9 °F 30.06 in WSW 7.0 mph 17.0 mph 58% 0.00 in
16:09 68.2 °F 52.9 °F 30.06 in SW 7.0 mph 17.0 mph 58% 0.00 in
16:14 68.5 °F 53.6 °F 30.06 in West 3.0 mph 12.0 mph 59% 0.00 in
16:19 69.3 °F 53.4 °F 30.06 in WSW 6.0 mph 12.0 mph 57% 0.00 in
16:29 68.3 °F 52.0 °F 30.06 in West 7.0 mph 15.0 mph 56% 0.00 in
16:34 68.6 °F 53.2 °F 30.06 in West 5.0 mph 11.0 mph 58% 0.00 in
16:39 68.5 °F 53.6 °F 30.06 in WNW 4.0 mph 11.0 mph 59% 0.00 in
16:44 68.5 °F 53.6 °F 30.06 in South 5.0 mph 12.0 mph 59% 0.00 in
16:49 68.3 °F 53.9 °F 30.06 in SSW 5.0 mph 10.0 mph 60% 0.00 in
16:54 68.1 °F 53.7 °F 30.06 in WSW 6.0 mph 13.0 mph 60% 0.00 in
16:59 68.0 °F 54.0 °F 30.06 in WSW 6.0 mph 13.0 mph 61% 0.00 in
17:04 67.9 °F 54.0 °F 30.06 in West 9.0 mph 14.0 mph 61% 0.00 in
17:09 68.0 °F 54.9 °F 30.06 in South 11.0 mph 12.0 mph 63% 0.00 in
17:14 67.9 °F 54.0 °F 30.06 in SW 9.0 mph 14.0 mph 61% 0.00 in
17:19 67.4 °F 53.9 °F 30.06 in SW 10.0 mph 19.0 mph 62% 0.00 in
17:24 67.1 °F 54.1 °F 30.06 in WSW 9.0 mph 19.0 mph 63% 0.00 in
17:29 67.0 °F 54.4 °F 30.06 in WSW 8.0 mph 15.0 mph 64% 0.00 in
17:34 66.9 °F 55.2 °F 30.06 in WSW 7.0 mph 12.0 mph 66% 0.00 in
17:39 66.5 °F 55.6 °F 30.06 in West 11.0 mph 15.0 mph 68% 0.00 in
17:44 66.4 °F 56.3 °F 30.06 in West 8.0 mph 13.0 mph 70% 0.00 in
17:54 65.9 °F 56.2 °F 30.06 in WSW 8.0 mph 14.0 mph 71% 0.00 in
17:59 65.8 °F 56.1 °F 30.06 in WSW 7.0 mph 15.0 mph 71% 0.00 in
18:04 65.6 °F 55.5 °F 30.06 in WSW 6.0 mph 15.0 mph 70% 0.00 in
18:09 65.5 °F 55.1 °F 30.06 in WSW 4.0 mph 15.0 mph 69% 0.00 in
18:14 65.3 °F 55.3 °F 30.06 in WSW 7.0 mph 15.0 mph 70% 0.00 in
18:19 65.2 °F 55.6 °F 30.05 in WSW 11.0 mph 18.0 mph 71% 0.00 in
18:24 65.1 °F 55.5 °F 30.06 in WSW 8.0 mph 18.0 mph 71% 0.00 in
18:29 64.9 °F 55.3 °F 30.05 in WSW 6.0 mph 14.0 mph 71% 0.00 in
18:34 64.6 °F 53.8 °F 30.06 in WSW 5.0 mph 15.0 mph 68% 0.00 in
18:39 64.4 °F 53.6 °F 30.06 in West 7.0 mph 13.0 mph 68% 0.00 in
18:44 64.3 °F 52.7 °F 30.05 in SW 5.0 mph 16.0 mph 66% 0.00 in
18:49 64.3 °F 52.7 °F 30.05 in West 6.0 mph 9.0 mph 66% 0.00 in
18:54 64.1 °F 52.5 °F 30.05 in WSW 4.0 mph 9.0 mph 66% 0.00 in
18:59 63.9 °F 52.7 °F 30.05 in WSW 3.0 mph 8.0 mph 67% 0.00 in
19:04 64.0 °F 52.0 °F 30.06 in WSW 4.0 mph 12.0 mph 65% 0.00 in
19:09 63.9 °F 52.3 °F 30.06 in SW 5.0 mph 8.0 mph 66% 0.00 in
19:14 64.0 °F 52.0 °F 30.05 in WSW 6.0 mph 9.0 mph 65% 0.00 in
19:19 64.1 °F 52.1 °F 30.06 in WSW 3.0 mph 13.0 mph 65% 0.00 in
19:29 64.0 °F 52.4 °F 30.06 in WSW 5.0 mph 12.0 mph 66% 0.00 in
19:34 64.0 °F 52.4 °F 30.06 in WSW 5.0 mph 11.0 mph 66% 0.00 in
19:39 64.1 °F 52.5 °F 30.06 in WSW 5.0 mph 13.0 mph 66% 0.00 in
19:44 64.2 °F 52.2 °F 30.06 in WSW 5.0 mph 13.0 mph 65% 0.00 in
19:49 64.1 °F 52.5 °F 30.06 in SW 5.0 mph 10.0 mph 66% 0.00 in
19:54 64.1 °F 52.1 °F 30.06 in SW 4.0 mph 12.0 mph 65% 0.00 in
19:59 64.2 °F 52.2 °F 30.06 in West 4.0 mph 11.0 mph 65% 0.00 in
20:04 64.0 °F 52.4 °F 30.07 in WSW 3.0 mph 9.0 mph 66% 0.00 in
20:09 63.9 °F 52.3 °F 30.06 in SW 3.0 mph 7.0 mph 66% 0.00 in
20:14 63.7 °F 52.5 °F 30.07 in SW 2.0 mph 7.0 mph 67% 0.00 in
20:19 63.8 °F 52.6 °F 30.07 in WSW 3.0 mph 10.0 mph 67% 0.00 in
20:24 63.8 °F 52.2 °F 30.07 in WSW 6.0 mph 9.0 mph 66% 0.00 in
20:34 63.9 °F 51.5 °F 30.07 in WSW 4.0 mph 9.0 mph 64% 0.00 in
20:39 64.0 °F 51.6 °F 30.07 in WSW 4.0 mph 9.0 mph 64% 0.00 in
20:44 63.9 °F 51.9 °F 30.07 in WSW 3.0 mph 9.0 mph 65% 0.00 in
20:49 63.8 °F 52.2 °F 30.07 in WSW 2.0 mph 9.0 mph 66% 0.00 in
20:54 63.4 °F 51.8 °F 30.07 in WSW 3.0 mph 6.0 mph 66% 0.00 in
20:59 63.4 °F 51.4 °F 30.07 in WSW 3.0 mph 9.0 mph 65% 0.00 in
21:04 63.5 °F 51.5 °F 30.07 in WSW 3.0 mph 9.0 mph 65% 0.00 in
21:09 63.7 °F 52.1 °F 30.07 in WSW 4.0 mph 8.0 mph 66% 0.00 in
21:14 63.5 °F 51.9 °F 30.07 in SW 1.0 mph 5.0 mph 66% 0.00 in
21:19 63.1 °F 52.4 °F 30.08 in WNW 3.0 mph 6.0 mph 68% 0.00 in
21:24 63.4 °F 53.0 °F 30.08 in Calm   7.0 mph 69% 0.00 in
21:29 63.2 °F 53.3 °F 30.08 in SW 7.0 mph 8.0 mph 70% 0.00 in
21:34 63.3 °F 53.3 °F 30.08 in WSW 3.0 mph 9.0 mph 70% 0.00 in
21:39 63.4 °F 53.4 °F 30.08 in WSW 4.0 mph 9.0 mph 70% 0.00 in
21:44 63.3 °F 53.7 °F 30.08 in WSW 3.0 mph 8.0 mph 71% 0.00 in
21:49 63.5 °F 54.3 °F 30.08 in SW 5.0 mph 7.0 mph 72% 0.00 in
21:54 63.5 °F 54.3 °F 30.08 in SW 2.0 mph 5.0 mph 72% 0.00 in
21:59 63.6 °F 54.4 °F 30.08 in WSW 3.0 mph 6.0 mph 72% 0.00 in
22:04 63.6 °F 54.4 °F 30.08 in WSW 3.0 mph 7.0 mph 72% 0.00 in
22:09 63.5 °F 54.7 °F 30.08 in SW 2.0 mph 5.0 mph 73% 0.00 in
22:14 63.4 °F 54.6 °F 30.08 in WSW 2.0 mph 5.0 mph 73% 0.00 in
22:19 63.3 °F 54.9 °F 30.08 in Calm   5.0 mph 74% 0.00 in
22:24 63.4 °F 55.0 °F 30.08 in SW 2.0 mph 5.0 mph 74% 0.00 in
22:29 63.3 °F 54.9 °F 30.08 in SW 2.0 mph 5.0 mph 74% 0.00 in
22:34 63.1 °F 54.7 °F 30.08 in SW 1.0 mph 4.0 mph 74% 0.00 in
22:39 62.3 °F 54.3 °F 30.08 in SSW 1.0 mph 4.0 mph 75% 0.00 in
22:44 61.6 °F 54.3 °F 30.08 in Calm   3.0 mph 77% 0.00 in
22:49 61.1 °F 54.2 °F 30.08 in SSW 6.0 mph 6.0 mph 78% 0.00 in
22:54 60.9 °F 54.3 °F 30.08 in SSW 3.0 mph 6.0 mph 79% 0.00 in
22:59 60.6 °F 54.0 °F 30.08 in SSW 2.0 mph 6.0 mph 79% 0.00 in
23:04 60.4 °F 53.9 °F 30.07 in SSW 2.0 mph 5.0 mph 79% 0.00 in
23:09 60.2 °F 53.7 °F 30.07 in SW 2.0 mph 4.0 mph 79% 0.00 in
23:19 59.9 °F 53.7 °F 30.07 in SW 1.0 mph 4.0 mph 80% 0.00 in
23:24 59.8 °F 53.6 °F 30.07 in SW 1.0 mph 4.0 mph 80% 0.00 in
23:29 59.9 °F 54.1 °F 30.07 in SW 1.0 mph 5.0 mph 81% 0.00 in
23:34 59.8 °F 54.0 °F 30.07 in SW 1.0 mph 5.0 mph 81% 0.00 in
23:44 60.0 °F 54.2 °F 30.07 in SW 1.0 mph 3.0 mph 81% 0.00 in
23:54 60.3 °F 54.4 °F 30.07 in SW 2.0 mph 3.0 mph 81% 0.00 in
23:59 60.5 °F 54.6 °F 30.07 in SSW 2.0 mph 5.0 mph 81% 0.00 in
Buffalo, New York, USA
Compliments of Weather Underground - 2.25 mb